[[{"header":{"parameterUnit":"m.s-1","parameterCategory":1,"la1":30.2991,"la2":30.254,"lo1":-89.0895,"lo2":-89.0444,"dy":0.0017,"dx":0.0017,"nx":28,"ny":28,"refTime":"2025-02-12T03:00:00:Z","depth":0,"parameterNumber":2,"parameterNumberName":"U-component_of_WINDS"},"data":[0,0,0,0,0,0,0,0,0,0,0,0,0,0,0,0,0,0,0,0,0,0,0,0,0,0,0,0,0,0,0,0,0,0,0,0,0,0,0,0,0,0,0,0,0,0,0,0,0,0,0,0,0,0,0,0,0,0,0.0131,0.013,0,0.0091,0.009,0.009,0.0092,0.0093,0.0093,0.0094,0.0052,0.005,0.0049,0,0,0,0,0,0,0,0,0,0,0,0,0,0.0209,0.0207,0.0131,0.013,0.013,0.0091,0.009,0.009,0.0092,0.0093,0.0094,0.0094,0.0052,0.005,0.0048,0,0,0,0,0,0,0,0,0,0,0,0,0,0.0173,0.0207,0.0131,0.0126,0.0126,0.0091,0.009,0.009,0.0092,0.0093,0.0094,0.0095,0.0053,0.0051,0.0048,0.0015,0,0,0.004,0.0039,0,0,0,0,0,0,0,0,0.0175,0.017,0.0128,0.0127,0.0126,0.0097,0.0102,0.0065,0.0092,0.0105,0.0094,0.0095,0.0066,0.0063,0.0053,0.0013,0.0011,0.004,0.0039,0.0038,0.0037,0,0,0,0,0,0,0,0.0177,0.0171,0.0115,0.0127,0.0126,0.0126,0.0122,0.0095,0.0081,0.0104,0.0104,0.0099,0.0066,0.0056,0.0052,0.0011,0.004,0.0038,0.0037,0.0036,-0.0058,-0.0059,0,0,0,0,0,0,0.0181,0.0174,0.0116,0.0114,0.0153,0.0124,0.0119,0.0106,0.0081,0.0078,0.0098,0.0099,0.0059,0.0055,0.0051,0.001,0.0038,0.0035,0.0034,-0.0057,-0.0058,-0.0059,0,0,0,0,0,0,0.0182,0.0176,0.0118,0.0144,0.0136,0.0122,0.0106,0.0104,0.0094,0.0077,0.0075,0.009,0.006,0.0054,0.0024,0.0009,0.0034,0.0032,-0.0056,-0.0057,-0.0059,-0.007,0,0,0,0,0,0,0.0185,0.0176,0.0164,0.0143,0.0135,0.0092,0.0105,0.0103,0.009,0.0091,0.0069,0.0066,0.006,0.0028,0.0022,0.0006,0.003,-0.0055,-0.0057,-0.0058,-0.0069,-0.0072,-0.0075,0,0,0,0,0,0.0187,0.0162,0.0163,0.0156,0.0119,0.0091,0.0086,0.008,0.0089,0.0076,0.0065,0.0067,0.0012,0.0025,0.0018,0.0001,-0.0054,-0.0056,-0.0058,-0.0067,-0.0071,-0.0075,0,0,0,0,0,0,0.018,0.0159,0.016,0.0127,0.0111,0.0092,0.0075,0.0076,0.0057,0.0058,0.0051,0.0046,0.0016,0.0006,0.002,-0.0032,-0.002,-0.0023,-0.0024,-0.0028,-0.0031,-0.0029,0.0028,0,0,0,0,0,0.0174,0.0154,0.0137,0.0109,0.0101,0.0089,0.0077,0.0074,0.0057,0.005,0.0037,0.002,-0.0001,-0.0015,-0.0036,-0.007,-0.0075,-0.0084,-0.0088,-0.009,-0.0094,-0.0112,-0.0117,-0.0067,-0.0067,-0.0067,0,0,0.0162,0.0149,0.0136,0.0107,0.0094,0.0073,0.0084,0.006,0.0044,0.0046,0.0017,0.0007,-0.0013,-0.0045,-0.006,-0.0054,-0.0108,-0.0093,-0.0095,-0.0097,-0.0115,-0.012,-0.0124,-0.0068,-0.0068,-0.0068,0,0,0.013,0.0118,0.0093,0.0081,0.0061,0.0054,0.0048,0.0029,0.0022,-0.0007,-0.0006,-0.0025,-0.0061,-0.0075,-0.0087,-0.0123,-0.0122,-0.013,-0.0146,-0.0165,-0.0169,-0.0172,-0.0186,-0.019,-0.0133,-0.0133,-0.0133,0,0.0118,0.0086,0.0081,0.0057,0.0045,0.0046,0.0021,0.0009,-0.0016,-0.0025,-0.0018,-0.0063,-0.0076,-0.0112,-0.012,-0.013,-0.0137,-0.0128,-0.0167,-0.0171,-0.0175,-0.0188,-0.0193,-0.0134,-0.0133,-0.0133,-0.0133,0,0.0071,0.0049,0.0032,0.0008,-0.0006,-0.003,-0.0039,-0.0053,-0.0055,-0.0063,-0.0092,-0.0108,-0.0131,-0.0139,-0.0142,-0.0175,-0.0171,-0.0166,-0.0154,-0.018,-0.0192,-0.0197,-0.0135,-0.0134,-0.0134,-0.0134,0,0,0.0031,0.0006,-0.0,-0.0011,-0.0032,-0.0049,-0.0072,-0.0095,-0.0107,-0.0124,-0.0144,-0.0174,-0.0169,-0.0182,-0.0186,-0.0202,-0.023,-0.0194,-0.0195,-0.0201,-0.0268,-0.0273,-0.0279,-0.0229,-0.023,-0.0231,-0.0267,0,-0.0004,-0.0045,-0.005,-0.0087,-0.0108,-0.0106,-0.0127,-0.0142,-0.015,-0.0168,-0.0177,-0.0198,-0.019,-0.0198,-0.0213,-0.0223,-0.0244,-0.0221,-0.0248,-0.0249,-0.0245,-0.0285,-0.029,-0.0324,-0.0272,-0.0273,-0.0273,0,-0.0051,-0.0068,-0.0108,-0.0125,-0.0134,-0.0152,-0.0173,-0.019,-0.0207,-0.0212,-0.0226,-0.0227,-0.0252,-0.0238,-0.0272,-0.0256,-0.0267,-0.0274,-0.0275,-0.0279,-0.0264,-0.0291,-0.0335,-0.0341,-0.0281,-0.028,-0.028,0,-0.0077,-0.011,-0.0138,-0.0147,-0.0168,-0.0181,-0.019,-0.0206,-0.0219,-0.0237,-0.0245,-0.0266,-0.0278,-0.0294,-0.03,-0.0289,-0.0334,-0.0321,-0.0339,-0.0339,-0.035,-0.0349,-0.0397,-0.0355,-0.0355,-0.0355,-0.0355,0,-0.0116,-0.014,-0.015,-0.0167,-0.0194,-0.0199,-0.0226,-0.0234,-0.0248,-0.0267,-0.0267,-0.0285,-0.0292,-0.0311,-0.0316,-0.0344,-0.0349,-0.0354,-0.0355,-0.0354,-0.0354,-0.0363,-0.0361,-0.0356,-0.0356,-0.0356,-0.0355,0,-0.015,-0.0158,-0.0188,-0.0205,-0.0209,-0.0229,-0.0243,-0.026,-0.0267,-0.0291,-0.0297,-0.0308,-0.033,-0.0338,-0.0365,-0.0369,-0.0401,-0.04,-0.0395,-0.0396,-0.0414,-0.0413,-0.0471,-0.0479,-0.043,-0.0431,-0.0431,0,-0.0175,-0.0194,-0.0212,-0.0225,-0.0235,-0.0255,-0.0268,-0.0273,-0.0286,-0.0306,-0.0321,-0.0343,-0.0361,-0.0396,-0.0407,-0.0428,-0.0428,-0.0447,-0.0431,-0.043,-0.0429,-0.0429,-0.0431,-0.045,-0.0451,-0.0451,-0.0451,0,-0.0219,-0.0222,-0.0241,-0.026,-0.0276,-0.0292,-0.0307,-0.0317,-0.0325,-0.034,-0.0363,-0.0377,-0.0404,-0.0426,-0.0447,-0.0457,-0.0456,-0.0456,-0.0461,-0.0462,-0.0459,-0.0461,-0.0404,-0.0455,-0.0455,-0.0454,-0.0454,-0.0454,-0.0251,-0.0267,-0.0282,-0.0303,-0.0315,-0.0329,-0.0346,-0.0354,-0.0373,-0.0396,-0.0397,-0.0422,-0.0438,-0.0466,-0.0476,-0.0495,-0.049,-0.0498,-0.05,-0.0502,-0.0504,-0.0454,-0.0499,-0.0499,-0.0499,-0.0499,-0.0499,0,-0.0295,-0.0305,-0.0324,-0.0345,-0.0361,-0.0358,-0.0374,-0.0388,-0.041,-0.0424,-0.0442,-0.0467,-0.0489,-0.05,-0.0522,-0.0535,-0.0535,-0.054,-0.054,-0.0542,-0.0507,-0.0501,-0.054,-0.054,-0.054,-0.054,-0.054,-0.054,-0.0321,-0.0348,-0.0352,-0.0386,-0.0395,-0.0419,-0.0429,-0.0442,-0.0454,-0.0482,-0.05,-0.0507,-0.052,-0.0542,-0.0562,-0.0565,-0.0573,-0.0579,-0.0582,-0.0549,-0.0545,-0.0541,-0.0535,-0.058,-0.0581,-0.0615,-0.0616,-0.0616]},{"header":{"parameterUnit":"m.s-1","parameterCategory":1,"la1":30.2991,"la2":30.254,"lo1":-89.0895,"lo2":-89.0444,"dy":0.0017,"dx":0.0017,"nx":28,"ny":28,"refTime":"2025-02-12T03:00:00:Z","depth":0,"parameterNumber":3,"parameterNumberName":"V-component_of_WINDS"},"data":[0,0,0,0,0,0,0,0,0,0,0,0,0,0,0,0,0,0,0,0,0,0,0,0,0,0,0,0,0,0,0,0,0,0,0,0,0,0,0,0,0,0,0,0,0,0,0,0,0,0,0,0,0,0,0,0,0,0,-5.2561,-5.2561,0,-5.2584,-5.2584,-5.2584,-5.2546,-5.2545,-5.2544,-5.2542,-5.2562,-5.2564,-5.2566,0,0,0,0,0,0,0,0,0,0,0,0,0,-5.2483,-5.2484,-5.2561,-5.2561,-5.2562,-5.2584,-5.2584,-5.2584,-5.2546,-5.2545,-5.2543,-5.2542,-5.2562,-5.2564,-5.2566,0,0,0,0,0,0,0,0,0,0,0,0,0,-5.2512,-5.2485,-5.2561,-5.2545,-5.2544,-5.2584,-5.2584,-5.2585,-5.2547,-5.2545,-5.2543,-5.2541,-5.2561,-5.2564,-5.2566,-5.2621,0,0,-5.2574,-5.2575,0,0,0,0,0,0,0,0,-5.2511,-5.2515,-5.2547,-5.2547,-5.2545,-5.256,-5.2564,-5.2597,-5.2547,-5.2546,-5.2542,-5.254,-5.2563,-5.2565,-5.2574,-5.2622,-5.2623,-5.2574,-5.2576,-5.2577,-5.2578,0,0,0,0,0,0,0,-5.2509,-5.2514,-5.257,-5.2548,-5.2547,-5.2537,-5.2539,-5.257,-5.2565,-5.2546,-5.2543,-5.2546,-5.2562,-5.2571,-5.2574,-5.2623,-5.2574,-5.2577,-5.2578,-5.2579,-5.272,-5.2722,0,0,0,0,0,0,-5.2509,-5.2513,-5.2569,-5.2571,-5.2523,-5.254,-5.2542,-5.2557,-5.2564,-5.2564,-5.2548,-5.2545,-5.2568,-5.2571,-5.2574,-5.2641,-5.2577,-5.2579,-5.2581,-5.2718,-5.272,-5.2723,0,0,0,0,0,0,-5.2507,-5.2514,-5.2568,-5.2541,-5.2547,-5.2543,-5.2561,-5.2559,-5.2568,-5.2566,-5.2565,-5.2559,-5.2566,-5.2571,-5.2611,-5.2641,-5.2581,-5.2583,-5.2715,-5.2719,-5.2722,-5.2773,0,0,0,0,0,0,-5.2505,-5.2514,-5.2535,-5.2542,-5.2549,-5.2605,-5.2563,-5.2561,-5.2573,-5.2569,-5.2576,-5.2575,-5.2565,-5.2607,-5.2613,-5.2644,-5.2585,-5.2712,-5.2717,-5.2721,-5.2769,-5.2778,-5.2786,0,0,0,0,0,-5.2503,-5.2547,-5.2536,-5.2543,-5.2575,-5.2606,-5.261,-5.2599,-5.2576,-5.2597,-5.2596,-5.2575,-5.2637,-5.2611,-5.2618,-5.265,-5.271,-5.2716,-5.272,-5.2765,-5.2776,-5.2786,0,0,0,0,0,0,-5.2542,-5.2548,-5.2535,-5.2584,-5.2595,-5.26,-5.2626,-5.2611,-5.2628,-5.2623,-5.2607,-5.2609,-5.2653,-5.2655,-5.2626,-5.2704,-5.267,-5.2676,-5.2702,-5.2712,-5.272,-5.2719,-5.2587,0,0,0,0,0,-5.2556,-5.2582,-5.2586,-5.2628,-5.2634,-5.263,-5.2643,-5.2634,-5.2644,-5.2648,-5.265,-5.2661,-5.2683,-5.2697,-5.2717,-5.2769,-5.2771,-5.2794,-5.2803,-5.281,-5.2816,-5.2846,-5.2857,-5.2739,-5.2739,-5.2739,0,0,-5.2586,-5.2592,-5.2609,-5.2636,-5.2644,-5.2671,-5.2634,-5.2663,-5.2683,-5.2652,-5.2691,-5.2693,-5.2703,-5.2751,-5.2771,-5.2754,-5.2849,-5.2816,-5.2822,-5.2824,-5.2852,-5.2863,-5.2873,-5.2742,-5.2742,-5.2741,0,0,-5.2654,-5.2661,-5.2699,-5.2708,-5.2721,-5.2718,-5.2728,-5.2735,-5.2736,-5.2775,-5.2753,-5.2777,-5.2814,-5.2824,-5.2833,-5.2909,-5.2891,-5.2915,-5.296,-5.2989,-5.2999,-5.3007,-5.3035,-5.3046,-5.2921,-5.2921,-5.2922,0,-5.2689,-5.273,-5.2719,-5.2752,-5.2765,-5.274,-5.2779,-5.2788,-5.2806,-5.2815,-5.2796,-5.2845,-5.285,-5.29,-5.2919,-5.2927,-5.2937,-5.2915,-5.2998,-5.3006,-5.3014,-5.3041,-5.3052,-5.2924,-5.2924,-5.2924,-5.2924,0,-5.2774,-5.2803,-5.2831,-5.2853,-5.2869,-5.2903,-5.2898,-5.2915,-5.2905,-5.2905,-5.2945,-5.2951,-5.2973,-5.2984,-5.2973,-5.3033,-5.3023,-5.3001,-5.2966,-5.3028,-5.3054,-5.3064,-5.2929,-5.2928,-5.2927,-5.2926,0,0,-5.2866,-5.2883,-5.2894,-5.2905,-5.2919,-5.2941,-5.2975,-5.2999,-5.3015,-5.3029,-5.3058,-5.3092,-5.3073,-5.3084,-5.3074,-5.31,-5.3162,-5.3075,-5.3075,-5.3093,-5.3231,-5.3248,-5.326,-5.315,-5.3152,-5.3153,-5.323,0,-5.2935,-5.2997,-5.299,-5.3048,-5.3076,-5.3054,-5.3084,-5.3096,-5.3097,-5.312,-5.312,-5.3145,-5.3117,-5.3124,-5.3149,-5.3149,-5.319,-5.3144,-5.3177,-5.3179,-5.3177,-5.3273,-5.3291,-5.3363,-5.324,-5.3242,-5.3243,0,-5.3025,-5.3045,-5.3107,-5.312,-5.3132,-5.3159,-5.3182,-5.3204,-5.3217,-5.3216,-5.323,-5.3217,-5.3252,-5.3216,-5.3264,-5.3233,-5.3246,-5.3249,-5.3252,-5.3255,-5.3215,-5.3281,-5.3386,-5.3397,-5.3258,-5.3257,-5.3256,0,-5.3088,-5.3131,-5.3175,-5.3184,-5.3199,-5.322,-5.3227,-5.3239,-5.3254,-5.3273,-5.3284,-5.3306,-5.3318,-5.3335,-5.3329,-5.3303,-5.3379,-5.3342,-5.3379,-5.338,-5.3397,-5.3396,-5.3507,-5.3403,-5.3403,-5.3403,-5.3403,0,-5.3168,-5.3207,-5.3204,-5.3231,-5.3275,-5.3266,-5.3309,-5.3313,-5.3325,-5.3352,-5.3334,-5.3359,-5.3348,-5.3373,-5.3368,-5.341,-5.3415,-5.3415,-5.3414,-5.3418,-5.3418,-5.3427,-5.3422,-5.3406,-5.3405,-5.3405,-5.3404,0,-5.3246,-5.3245,-5.3292,-5.3304,-5.3308,-5.334,-5.335,-5.3376,-5.3376,-5.3411,-5.3418,-5.3418,-5.3447,-5.3442,-5.3473,-5.3469,-5.3523,-5.3514,-5.3519,-5.3517,-5.3556,-5.3553,-5.3677,-5.3694,-5.3578,-5.3579,-5.358,0,-5.3297,-5.3328,-5.3344,-5.3363,-5.3372,-5.3401,-5.3418,-5.341,-5.3428,-5.3448,-5.3471,-5.3499,-5.3521,-5.3568,-5.357,-5.3594,-5.3587,-5.3629,-5.359,-5.3595,-5.359,-5.3589,-5.3592,-5.3637,-5.3638,-5.3639,-5.364,0,-5.3389,-5.3388,-5.3414,-5.3441,-5.3462,-5.3482,-5.35,-5.3515,-5.351,-5.3531,-5.3562,-5.3579,-5.3613,-5.3641,-5.3664,-5.367,-5.3655,-5.3652,-5.3663,-5.3668,-5.367,-5.3671,-5.3541,-5.3649,-5.3649,-5.3648,-5.3647,-5.3647,-5.3456,-5.3484,-5.3501,-5.3531,-5.3545,-5.3563,-5.3588,-5.3593,-5.3619,-5.3647,-5.3641,-5.3676,-5.369,-5.3721,-5.373,-5.3757,-5.3741,-5.3755,-5.3759,-5.3763,-5.3769,-5.3665,-5.3761,-5.376,-5.376,-5.376,-5.376,0,-5.3549,-5.356,-5.3588,-5.3616,-5.364,-5.3625,-5.3645,-5.3665,-5.3697,-5.3713,-5.3736,-5.3772,-5.38,-5.3806,-5.3832,-5.3853,-5.3847,-5.386,-5.3859,-5.3861,-5.3781,-5.377,-5.3865,-5.3865,-5.3865,-5.3865,-5.3865,-5.3865,-5.36,-5.3647,-5.3648,-5.3701,-5.3711,-5.3747,-5.376,-5.3777,-5.379,-5.3832,-5.3856,-5.386,-5.3872,-5.39,-5.3925,-5.3926,-5.3937,-5.3954,-5.3952,-5.3877,-5.3867,-5.3857,-5.3847,-5.3956,-5.3957,-5.4031,-5.4032,-5.4032]}]]